Location: Sungai Kamana Besar
(2.6333°N, 113.4333°E)
Time: 04:51:31
(UTC+00:00)

Tiangong - Pass Details

Date: 29 May 2022
Orbit: 384 x 388 km, 41.5° (Epoch: 26 June)

Event Time Altitude Azimuth Distance (km) Brightness Sun altitude
Exits shadow 21:14:03 10° 180° (S) 1,441 3.7 -15.1°
Reaches altitude 10° 21:14:08 10° 179° (S) 1,415 3.7 -15.1°
Maximum altitude 21:16:17 17° 136° (SE) 1,083 3.6 -14.6°
Drops below altitude 10° 21:18:26 10° 94° (E) 1,410 4.9 -14.1°
Sets 21:21:00 0° 72° (ENE) 2,260 7.0 -13.5°
